RH
25 31 32 43 75 74 67 76 86 36 30 31 32 29 31 21 19 18 20 23 23 23 24 24 19 18 16 16 20 67 72 54 62 51 50 57 39 35 32 40 74 84 77 65 93
31 36 37 53 79 74 99 59 53 42 55 58 73 44 46 36 23 21 21 20 22 25 26 26 20 18 17 15 15 17 43 87 82 70 57 56 51 42 34 33 45 77 82 70 63
41 34 36 43 56 59 71 89 84 78 65 51 64 55 66 39 26 24 20 22 22 24 26 23 18 13 14 15 14 14 16 25 84 100 86 69 65 50 43 37 33 52 81 84 71
44 38 39 41 38 55 74 81 91 100 88 73 87 92 64 39 38 30 22 21 25 28 28 24 16 13 10 13 15 12 13 16 18 35 90 100 81 64 50 47 42 36 53 87 79
45 39 35 38 45 56 82 98 100 100 94 79 93 69 40 45 52 35 26 25 27 36 39 30 19 14 10 10 12 10 11 14 14 17 19 66 100 74 59 54 51 47 40 60 74
40 39 35 34 38 45 80 100 100 88 79 89 86 38 28 40 40 33 24 26 36 42 39 20 11 8 6 7 8 8 8 10 12 13 16 19 54 74 68 61 56 54 50 52 57
49 42 40 31 42 48 83 96 92 75 91 100 39 31 28 32 26 26 27 34 37 29 21 12 6 5 5 4 5 5 5 7 8 12 13 16 22 32 51 56 57 61 60 56 58
49 45 42 33 37 46 76 94 86 78 98 47 42 35 37 44 33 30 28 39 28 17 10 6 5 4 4 4 4 4 4 5 8 10 12 12 15 18 22 34 61 61 70 55 59
46 51 40 32 34 44 72 97 83 88 74 52 42 43 58 46 29 24 33 27 21 11 6 5 5 4 4 3 3 4 4 5 6 8 10 11 12 16 18 22 31 66 77 65 53
50 51 48 39 38 40 48 53 84 69 68 66 53 41 36 26 24 28 35 23 13 7 6 6 5 5 4 4 3 4 4 5 6 7 9 10 9 12 14 18 22 51 96 87 64
58 52 47 49 47 41 40 42 53 70 42 47 42 36 33 32 24 35 36 20 9 7 7 6 6 5 4 4 4 3 4 5 6 6 7 9 10 12 14 16 30 46 99 99 80
65 58 56 55 53 46 45 42 37 40 45 45 37 34 34 25 29 40 31 16 8 7 6 6 6 5 5 4 4 4 4 6 6 6 6 8 9 11 10 13 21 49 78 100 92
83 69 48 56 62 60 50 45 47 47 42 40 33 30 33 27 30 41 33 14 8 8 6 7 7 6 6 5 5 5 5 6 6 7 7 8 8 8 8 10 14 28 47 98 100
76 69 78 78 75 67 59 57 54 48 39 46 31 31 30 35 34 42 29 13 10 8 6 7 8 8 7 6 5 5 6 6 7 8 9 8 8 10 8 11 13 14 34 44 97
79 89 76 77 90 84 64 52 48 48 44 42 37 31 28 31 32 45 39 14 11 8 6 7 8 8 8 6 6 6 8 8 8 9 8 9 10 9 10 11 13 13 17 35 51
96 92 93 72 70 75 72 54 49 46 42 41 45 33 34 34 34 44 41 17 12 10 7 8 9 8 9 8 8 9 10 10 10 11 10 10 10 9 10 12 12 15 15 19 31
62 88 72 78 88 78 77 64 57 44 37 35 42 45 40 35 37 44 45 23 13 11 8 8 10 9 9 9 10 9 9 9 9 11 10 10 9 10 10 11 12 14 16 18 25
63 73 75 88 76 82 78 66 59 50 38 38 55 66 51 45 35 45 51 23 14 11 10 9 10 10 9 9 10 10 11 10 10 12 10 10 10 10 11 12 12 13 16 17 18
73 73 89 78 79 73 72 66 59 30 40 46 52 54 58 38 38 47 54 26 15 12 12 11 10 12 9 9 11 11 11 13 12 13 11 10 10 10 11 11 13 13 14 16 17
93 95 92 81 73 58 72 64 52 37 51 54 54 46 54 56 43 50 56 30 16 13 12 12 10 13 12 10 11 13 12 11 13 15 14 10 9 10 12 11 12 13 12 13 15
92 86 90 75 68 60 67 56 37 42 56 58 60 55 58 49 47 49 51 26 17 14 12 13 10 14 13 11 13 14 14 13 11 13 16 16 15 16 15 14 12 13 12 12 14
92 100 80 71 60 61 87 52 34 64 63 60 61 59 52 41 52 47 52 24 17 14 11 13 11 13 14 14 14 16 18 16 17 15 15 15 16 17 15 15 14 13 13 13 14
95 80 68 58 71 77 76 42 61 73 54 69 73 76 54 44 48 48 47 25 17 14 12 12 11 13 15 14 16 16 18 20 18 17 19 16 16 15 15 14 13 12 13 14 14
77 79 63 76 74 70 61 75 95 74 76 86 76 76 70 54 58 49 47 21 17 13 11 11 12 13 15 13 17 19 18 20 24 23 24 22 20 18 16 15 14 13 13 14 14
71 62 72 66 69 73 66 86 88 93 97 81 69 74 70 66 51 50 52 20 16 12 11 11 13 14 16 14 17 20 22 22 22 20 22 21 17 16 16 16 16 15 14 14 14
60 75 56 57 75 84 78 100 100 100 100 72 65 56 58 64 49 49 52 21 16 12 11 12 14 15 15 14 18 21 23 24 24 22 20 19 18 18 16 15 16 16 16 15 15
94 59 76 85 91 94 86 98 100 92 94 75 63 54 52 49 45 48 51 23 16 12 11 12 15 15 15 14 17 22 26 24 22 20 20 20 20 19 18 17 17 17 17 17 16
Wind_Speed
40 42 42 42 44 44 45 47 50 51 50 52 55 58 61 61 62 59 61 62 61 60 56 58 63 69 86 99 101 105 106 97 90 90 88 94 91 86 80 78 76 73 69 69 64
48 49 44 43 44 44 48 48 49 53 57 56 62 66 71 70 67 67 69 68 71 72 71 68 66 67 76 88 103 107 109 106 102 100 99 99 99 95 86 80 78 77 75 73 71
51 54 52 46 44 43 46 51 50 55 62 60 66 70 77 72 71 73 73 72 76 80 80 78 74 69 71 84 94 106 107 113 115 110 109 107 106 101 93 85 80 80 81 81 78
52 55 54 49 45 44 48 51 57 60 62 67 70 76 76 75 78 78 76 79 87 85 84 81 80 77 75 74 87 102 99 115 116 118 117 113 113 107 101 92 87 84 83 85 84
53 56 56 54 49 47 49 54 59 63 63 72 75 76 76 79 82 82 85 86 91 85 88 89 87 88 76 71 81 90 92 109 116 119 118 123 116 117 109 102 94 90 87 86 87
55 58 57 60 55 53 52 58 60 65 69 70 74 77 81 85 84 86 90 90 93 87 90 95 95 91 76 67 74 80 87 97 106 114 121 119 123 125 115 108 102 96 91 91 90
57 59 60 63 61 60 57 59 63 66 66 72 72 77 81 87 84 89 85 92 86 88 93 102 89 76 69 63 65 72 77 85 94 103 110 121 122 119 121 113 108 102 98 95 94
59 59 61 65 62 60 59 63 66 66 69 69 77 83 88 90 93 89 94 83 88 95 102 86 76 67 60 58 60 63 68 71 79 93 102 115 117 121 120 119 113 108 104 97 96
61 61 64 66 65 63 62 65 68 68 73 75 83 90 94 95 95 92 92 83 86 99 84 70 64 57 53 50 52 59 63 66 77 85 92 105 104 118 123 119 115 113 109 105 98
61 62 65 67 66 64 63 66 69 71 75 82 85 89 93 95 90 95 89 86 90 84 69 57 51 48 46 46 52 53 60 66 73 77 85 94 96 108 116 123 119 118 115 110 104
62 64 67 65 67 65 66 66 68 73 73 76 86 91 93 98 93 98 90 87 92 69 60 48 40 34 35 42 46 49 57 63 71 78 84 89 93 96 99 112 125 122 116 113 110
64 67 69 68 67 68 69 65 68 73 76 83 87 92 93 90 93 96 84 83 77 64 52 43 35 28 25 32 41 47 52 61 70 75 77 84 90 92 102 106 117 122 122 117 115
64 69 70 72 71 72 75 71 72 75 79 88 91 93 94 94 94 92 85 80 69 60 49 40 33 27 21 25 32 43 50 57 66 69 75 79 84 90 98 97 106 119 123 126 118
67 68 70 74 74 76 77 78 78 81 84 91 95 95 93 98 96 96 86 77 68 61 46 39 32 26 23 21 29 35 45 53 58 65 68 69 71 84 89 90 101 109 122 127 128
68 70 73 75 78 79 81 80 81 84 90 93 97 98 94 93 94 100 88 75 68 60 45 37 30 23 20 19 22 29 40 49 56 62 66 66 73 81 87 91 97 99 111 123 127
72 73 77 80 81 84 82 82 85 86 91 95 96 97 100 96 100 101 87 74 67 57 44 35 28 22 15 15 17 25 37 45 51 58 61 66 74 80 84 88 92 98 105 118 125
74 75 79 81 85 86 84 85 86 87 93 94 94 97 98 97 100 101 87 76 67 54 43 33 25 21 13 11 16 22 31 39 44 48 58 66 75 77 80 85 91 96 100 111 121
73 76 80 83 87 86 86 85 87 88 91 93 98 99 98 99 100 99 90 72 66 53 41 34 23 22 13 10 14 20 24 27 36 45 53 59 65 69 73 78 88 91 95 102 113
75 79 82 85 87 87 83 85 85 89 88 93 97 100 101 99 98 96 88 73 65 51 40 32 24 19 18 11 11 19 25 28 30 39 46 52 56 62 69 76 82 86 90 96 101
77 80 86 86 87 87 84 85 85 87 92 91 97 100 98 101 99 93 85 72 63 52 37 31 23 17 16 13 9 14 21 27 30 32 38 45 48 51 59 67 74 80 86 91 95
79 83 88 84 85 85 83 82 85 85 89 90 97 101 98 97 98 94 81 68 61 50 36 26 23 16 15 13 9 11 16 19 26 33 38 40 42 46 53 60 68 74 80 84 87
79 84 84 84 84 83 84 84 82 89 92 90 97 100 95 96 97 91 80 66 57 47 34 25 21 15 12 13 10 13 14 16 20 27 32 38 44 48 51 57 63 68 73 79 84
82 80 82 85 81 84 85 82 88 94 91 91 95 97 99 97 95 90 76 63 53 43 31 24 21 14 9 9 9 11 15 16 18 20 24 30 36 44 49 53 59 62 65 69 75
80 79 85 78 79 79 83 88 94 97 92 90 98 98 98 93 93 88 75 60 51 39 30 25 20 13 8 10 13 14 18 20 21 23 24 29 34 39 42 47 52 56 59 63 68
82 84 77 75 77 85 90 93 97 93 86 93 97 96 94 93 89 82 74 58 48 36 29 24 18 12 7 8 12 14 16 18 20 22 24 29 31 35 40 43 47 52 55 57 61
83 83 74 75 83 91 94 93 94 86 86 97 97 95 90 88 85 76 71 56 45 34 28 24 19 10 6 8 11 14 16 19 20 21 23 25 27 30 35 40 43 46 50 53 56
85 82 88 89 89 90 88 90 82 84 90 96 97 93 86 85 79 72 68 54 43 32 26 22 18 10 7 6 12 16 18 19 19 19 20 22 24 27 31 35 39 43 45 48 51
Wind_Direction
350 344 337 327 325 325 328 327 325 328 328 326 327 326 329 322 321 319 318 315 312 304 296 290 270 263 252 246 244 244 242 238 235 234 234 239 239 237 233 230 229 230 230 231 229
349 346 340 329 327 326 324 327 325 327 331 327 325 326 326 324 323 319 317 315 316 311 303 292 276 262 261 254 244 242 240 238 237 235 233 236 239 239 234 231 228 229 229 231 231
345 345 343 333 326 324 325 320 321 323 325 327 324 324 323 322 322 318 317 314 316 313 305 295 285 273 255 255 250 243 237 238 235 235 234 234 237 237 236 233 231 228 228 230 230
341 341 341 335 330 328 326 323 323 322 319 323 321 320 322 320 318 316 318 316 317 311 307 297 289 285 275 258 249 246 238 237 234 235 233 232 233 234 235 233 231 231 226 230 229
337 339 340 334 329 326 324 321 321 320 319 319 320 321 320 319 318 318 320 318 316 311 312 301 293 288 281 264 250 245 239 236 235 233 233 232 230 234 233 232 230 231 230 228 231
336 338 339 337 331 330 326 322 322 320 319 319 319 321 325 321 318 319 319 319 316 317 309 298 295 291 284 265 252 245 235 235 234 231 231 232 231 233 233 229 230 229 231 230 227
334 337 338 337 333 330 327 323 320 324 322 318 322 326 329 328 326 324 322 319 316 313 304 299 296 289 279 267 253 243 238 232 231 231 228 230 230 231 232 229 228 229 230 231 228
329 335 335 336 334 332 329 325 323 325 320 320 324 326 325 324 326 327 326 321 315 306 304 300 295 287 276 266 254 241 237 231 228 227 227 228 227 228 231 231 227 227 230 228 228
330 331 333 335 335 333 327 321 323 322 319 318 323 326 325 324 327 327 328 317 310 307 306 303 294 285 275 265 254 240 231 225 225 222 223 226 223 226 226 229 227 226 227 228 229
328 328 331 334 333 332 328 325 325 324 322 324 325 326 324 326 329 331 329 319 312 312 312 305 295 285 274 260 248 240 230 222 221 220 218 221 220 224 224 226 229 225 224 227 229
327 328 330 331 331 330 328 328 327 324 323 323 324 325 326 326 332 338 332 322 317 318 315 310 300 288 268 254 246 238 227 222 222 219 216 216 215 219 220 220 222 224 223 224 227
324 326 329 329 329 329 329 327 327 326 327 326 326 326 328 330 338 343 333 323 322 322 319 319 311 300 276 253 238 232 226 220 220 222 216 215 213 214 217 216 218 220 223 222 223
322 323 325 328 328 329 330 327 327 326 326 328 329 329 329 334 342 344 338 330 329 326 326 326 318 306 285 255 235 227 222 220 219 219 219 216 212 215 217 214 216 217 219 221 221
321 322 324 326 325 328 329 328 326 326 328 328 331 331 334 339 345 346 340 333 336 330 330 329 325 308 287 255 232 222 219 217 215 216 217 217 215 212 216 214 215 217 218 220 221
319 320 323 324 325 326 327 328 327 327 327 329 331 334 337 342 346 348 345 339 339 334 331 333 327 312 285 267 236 218 215 213 212 211 213 210 212 211 211 213 213 216 217 218 220
317 319 321 322 325 326 326 327 328 327 329 331 332 335 337 341 344 349 348 343 342 337 330 335 330 315 287 262 234 218 215 212 209 209 208 208 211 210 209 210 211 214 216 216 218
315 316 319 321 323 324 325 326 327 329 331 332 334 336 339 339 345 349 348 346 344 340 332 336 330 315 297 253 235 223 219 215 210 209 208 209 210 210 209 210 212 213 214 216 217
313 315 317 320 322 323 324 326 328 330 332 335 335 335 339 341 345 350 350 347 344 342 336 332 330 313 303 262 232 219 219 219 210 209 212 211 214 211 210 210 213 214 215 216 217
310 313 316 320 321 323 324 325 328 332 332 334 336 336 338 340 344 350 349 348 345 342 340 331 329 314 303 282 238 228 212 207 205 208 212 212 213 213 214 211 212 214 216 218 219
309 312 316 319 321 322 322 325 326 329 332 331 337 338 338 338 344 352 348 347 346 341 342 331 330 317 297 291 249 228 222 209 199 201 209 213 212 209 213 214 215 216 218 219 221
307 309 314 318 319 320 323 327 328 330 332 331 337 339 338 338 343 352 347 346 346 341 342 334 325 319 294 278 242 227 218 214 210 200 200 201 206 210 211 214 214 215 218 220 222
306 309 313 317 319 319 322 327 327 328 330 333 336 339 338 339 344 351 347 346 346 341 342 334 323 316 300 280 241 211 203 203 202 205 206 204 206 210 212 212 213 214 216 219 221
306 309 314 317 319 319 322 324 325 327 330 332 334 337 337 338 342 348 346 345 346 341 342 334 325 319 290 261 238 204 192 193 200 201 206 207 209 213 215 215 215 214 216 218 221
308 311 315 316 319 321 322 323 323 326 328 330 333 334 335 337 340 347 346 345 344 340 343 336 330 318 277 239 213 200 192 187 186 196 198 206 208 213 215 217 217 217 217 219 220
307 312 313 313 316 319 321 320 323 324 326 329 332 332 333 336 340 346 345 343 344 338 342 337 329 315 267 241 210 195 194 194 197 198 201 209 212 213 213 214 215 216 217 219 222
310 312 313 317 316 318 321 320 320 323 325 330 330 330 331 334 340 345 345 343 343 336 340 337 327 308 259 238 200 193 194 197 200 205 208 209 211 212 214 212 212 213 215 218 220
310 312 315 315 315 317 318 319 320 322 324 328 327 328 329 333 339 343 343 343 342 333 336 333 326 300 254 230 211 192 193 200 201 203 206 206 209 210 210 211 210 209 211 214 218